User: anonymous
Location: Caltech
(34.1382°N, 118.1253°W)
Time: 08:37:42
(UTC-07:00)
Language:

TITAN 4B R/B - Orbit

View from above orbital plane
View from above orbital plane
View from above satellite
View from above satellite

Ground track
Ground track

The orbit data is extracted from the following two-line orbital elements,

1 28647U 05016B   14172.85521085 0.00001700  00000-0  10935-3 0    00
2 28647  56.9986 115.1250 0139747 164.1513 195.8487 15.00170251    03
Epoch (UTC): 21 June 2014 20:31:30
Eccentricity: 0.0139747
inclination: 56.9986°
perigee height: 469 km
apogee height: 663 km
right ascension of ascending node: 115.1250°
argument of perigee: 164.1513°
revolutions per day: 15.00170251
mean anomaly at epoch: 195.8487°
orbit number at epoch: 0

The dashed part of the orbit path shows where the satellite is in the earth's shadow,  

DLR